SCP
0 0 0 0 0 0 0 0 0 0 0 0 0 0 0 0 0 0 0 0 0 0 0 0 0 0 0 0 0 0 0 0 -0 -0 0 -0 -0 -0 -0 -0 0 -0 0 0
0 0 0 0 0 0 0 0 0 0 0 0 0 0 0 0 0 0 0 0 0 0 0 0 0 0 0 0 0 0 0 0 0 0 0 0 0 -0 -0 -0 -0 0 0 0
0 0 0 0 0 0 0 0 0 0 0 0 0 0 0 0 0 0 0 0 0 0 0 0 0 0 0 0 0 0 0 0 0 0 0 0 0 0 0 0 -0 0 0 0
0 0 0 0 0 0 0 0 0 0 0 0 0 0 0 0 0 0 0 0 0 0 0 0 0 0 0 0 0 0 0 0 0 0 0 0 0 0 0 0 0 0 0 0
0 0 0 0 0 0 0 0 0 0 0 0 0 0 0 0 0 0 0 0 0 0 0 0 0 0 0 0 0 0 0 0 0 0 0 0 0 0 0 0 0 -0 -0 -0
0 0 0 0 0 0 0 0 0 0 0 0 0 0 0 0 0 0 0 0 0 0 0 0 0 0 0 0 0 0 0 0 0 0 0 0 0 0 0 0 0 -0 0 -0
0 0 0 0 0 0 0 0 0 0 0 0 0 0 0 0 0 0 0 0 0 0 0 0 0 0 0 0 0 0 0 0 0 0 0 0 0 0 0 0 0 0 -0 -0
0 0 0 0 0 0 0 0 0 0 0 0 0 0 0 0 0 0 0 0 0 0 0 0 0 0 0 0 0 0 0 0 0 0 0 0 0 0 0 0 0 0 0 0
0 0 0 0 0 0 0 0 0 0 0 0 0 0 0 0 0 0 0 0 0 0 0 0 0 0 0 0 0 0 0 0 0 0 0 0 0 0 0 0 0 0 0 0
0 0 0 0 0 0 0 0 0 0 0 0 0 0 0 0 0 0 0 0 0 0 0 0 0 0 0 0 0 0 0 0 0 0 0 0 0 0 0 0 0 0 0 0
0 0 0 0 0 0 0 0 0 0 0 0 0 0 0 0 0 0 0 0 0 0 0 0 0 0 0 0 0 0 0 0 0 0 0 0 0 0 0 0 0 0 -0 -0
0 0 0 0 0 0 0 0 0 0 0 0 0 0 0 0 0 0 0 0 0 0 0 0 0 0 0 0 0 0 0 0 0 0 0 0 0 0 0 0 0 0 0 0
0 0 0 0 0 0 0 0 0 0 0 0 0 0 0 0 0 0 0 0 0 0 0 0 0 0 0 0 0 0 0 0 0 0 0 0 0 0 0 0 0 0 0 0
0 0 0 0 0 0 0 0 0 0 0 0 0 0 0 0 0 0 0 0 0 0 0 0 0 0 0 0 0 0 0 0 0 0 0 0 0 0 0 0 0 0 0 0
0 0 0 0 0 0 0 0 0 0 0 0 0 0 0 0 0 0 0 0 0 0 0 0 0 0 0 0 0 0 0 0 0 0 0 0 0 0 0 0 0 0 0 0
0 0 0 0 0 0 0 0 0 0 0 0 0 0 0 0 0 0 0 0 0 0 0 0 0 0 0 0 0 0 0 0 0 0 0 0 0 0 0 0 0 0 0 0
0 0 0 0 0 0 0 0 0 0 0 0 0 0 0 0 0 0 0 0 0 0 0 0 0 0 0 0 0 0 0 0 0 0 0 0 0 0 0 0 0 0 0 0
0 0 0 0 0 0 0 0 0 0 0 0 0 0 0 0 0 0 0 0 0 0 0 0 0 0 0 0 0 0 0 0 0 0 0 0 0 0 0 0 0 0 0 0
0 0 0 0 0 0 0 0 0 0 0 0 0 0 0 0 0 0 0 0 0 0 0 0 0 0 0 0 0 0 0 0 0 0 0 0 0 0 0 0 0 0 0 0
0 0 0 0 0 0 0 0 0 0 0 0 0 0 0 0 0 0 0 0 0 0 0 0 0 0 0 0 0 0 0 0 0 0 0 0 0 0 0 0 0 0 0 0
0 0 0 0 0 0 0 0 0 0 0 0 0 0 0 0 0 0 0 0 0 0 0 0 0 0 0 0 0 0 0 0 0 0 0 0 0 0 0 0 0 0 0 0
0 0 0 0 0 0 0 0 0 0 0 0 0 0 0 0 0 0 0 0 0 0 0 0 0 0 0 0 0 0 0 0 0 0 0 0 0 0 0 0 0 0 0 0
0 0 0 0 0 0 0 0 0 0 0 0 0 0 0 0 0 0 0 0 0 0 0 0 0 0 0 0 0 0 0 0 0 0 0 0 0 0 0 0 0 0 0 0
0 0 0 0 0 0 0 0 0 0 0 0 0 0 0 0 0 0 0 0 0 0 0 0 0 0 0 0 0 0 0 0 0 0 0 0 0 0 0 0 0 0 0 0
0 0 0 0 0 0 0 0 0 0 0 0 0 0 0 0 0 0 0 0 0 0 0 0 0 0 0 0 0 0 0 0 0 0 0 0 0 0 0 0 0 0 0 0
0 0 0 0 0 0 0 0 0 0 0 0 0 0 0 0 0 0 0 0 0 0 0 0 0 0 0 0 0 0 0 0 0 0 0 0 0 0 0 0 0 0 0 0
0 0 0 0 0 0 0 0 0 0 0 0 0 0 0 0 0 0 0 0 0 0 0 0 0 0 0 0 0 0 0 0 0 0 0 0 0 0 0 0 0 0 0 0
Wind_Speed_500mb
6 11 12 14 12 6 4 8 8 10 14 15 15 11 18 20 20 27 32 30 30 28 26 19 15 13 12 7 6 2 5 9 14 17 23 28 32 35 37 41 46 48 50 49
6 9 14 23 13 13 18 18 18 27 20 23 19 26 18 14 24 25 25 24 17 19 23 19 16 16 17 11 10 7 2 3 5 8 8 13 19 22 29 37 43 48 52 53
7 10 17 17 18 22 20 18 13 16 19 9 9 18 19 13 24 27 22 27 26 22 18 25 23 23 16 14 17 11 5 2 2 6 7 8 11 19 26 31 36 46 51 52
6 8 10 13 15 18 23 24 25 20 12 18 17 24 13 10 21 33 36 33 28 26 25 31 29 22 18 16 9 13 10 5 4 2 7 9 10 17 24 29 37 42 47 50
7 11 14 25 21 7 12 14 6 16 16 20 19 27 14 9 12 19 21 24 26 33 32 30 25 24 26 20 8 5 5 1 5 8 9 13 19 20 22 25 32 40 43 47
3 7 13 14 23 11 9 5 14 25 12 15 13 4 7 15 17 22 24 32 34 36 34 29 24 23 21 20 9 5 8 11 12 17 20 17 19 24 26 26 27 31 37 42
10 10 11 11 29 11 11 12 14 14 17 15 7 13 10 17 24 25 25 25 20 26 35 22 23 14 9 12 12 7 7 10 13 16 20 18 14 15 16 18 18 20 29 35
7 11 21 20 13 14 9 22 21 9 14 15 7 9 19 34 36 30 31 26 17 26 26 25 20 10 12 9 12 11 8 6 11 12 7 10 12 10 11 8 11 16 22 30
14 11 12 7 14 7 7 5 10 15 11 5 6 17 32 37 31 35 36 32 26 31 39 28 18 20 26 12 14 13 8 5 5 7 2 7 15 15 15 15 15 19 23 29
7 12 19 33 12 12 7 6 4 7 10 10 13 24 27 29 30 41 40 35 36 39 34 31 30 27 24 23 18 15 11 7 7 3 4 8 12 14 19 23 23 27 31 36
3 4 7 14 10 20 10 2 3 7 16 15 15 30 33 36 38 44 39 35 40 38 33 36 34 28 28 25 23 21 16 14 10 7 5 4 10 14 19 24 25 27 32 40
8 8 10 14 12 10 10 15 22 21 22 20 18 32 37 33 34 44 42 44 41 36 32 32 34 33 26 29 27 25 19 15 14 10 8 6 4 9 13 18 23 26 30 36
24 41 42 43 44 47 45 39 28 25 29 24 21 31 36 29 34 43 45 44 40 36 38 38 38 35 38 36 32 27 21 16 16 13 10 7 5 5 9 13 14 19 23 30
45 43 41 39 30 26 27 25 23 32 30 27 24 32 38 32 41 46 45 41 39 42 44 45 40 38 35 33 30 28 22 18 13 8 7 7 7 6 6 8 11 13 23 26
54 53 54 51 52 47 41 21 32 38 31 26 30 39 42 41 46 48 43 40 42 46 47 45 41 35 30 28 28 28 20 15 12 9 6 6 7 7 10 10 10 15 23 32
45 46 45 48 47 49 54 42 47 35 32 35 36 42 45 43 47 47 46 46 52 54 49 44 38 32 31 28 24 21 17 12 11 11 8 7 9 11 13 14 16 20 25 29
49 44 46 48 49 27 26 41 43 32 39 41 41 44 47 48 44 48 47 46 48 48 43 39 37 32 29 27 25 22 18 13 9 12 12 10 13 16 16 15 16 20 24 28
61 65 62 57 48 36 37 43 39 36 42 42 44 46 46 44 50 53 51 50 47 43 40 34 30 29 28 27 26 23 20 17 13 14 17 12 11 16 17 17 18 20 21 24
29 33 44 66 65 56 48 45 43 40 39 43 45 46 40 44 48 48 49 50 47 44 40 31 29 29 29 30 31 27 23 21 17 16 15 14 13 16 19 21 21 20 20 22
24 27 28 32 43 47 46 45 47 42 40 38 42 46 44 49 49 46 46 44 40 36 31 30 30 32 29 28 31 27 20 18 20 19 18 18 20 21 23 23 21 21 23 24
3 14 26 38 41 42 42 45 41 31 33 38 38 45 46 48 46 45 45 44 41 36 30 25 31 32 26 29 31 22 18 17 20 21 22 20 19 19 21 24 25 26 26 28
11 14 19 22 29 36 36 31 21 28 38 35 35 42 47 47 44 40 33 36 37 35 29 27 33 31 24 28 27 20 18 18 19 20 22 23 22 22 23 25 27 27 28 29
13 14 18 24 28 30 28 26 27 28 34 37 40 43 44 41 39 42 44 36 32 26 30 34 35 30 27 25 18 16 16 18 20 22 24 23 23 22 24 26 26 26 25 24
15 19 21 23 24 28 32 31 28 30 34 35 33 32 35 37 35 36 36 29 27 32 29 34 35 29 26 23 19 16 17 19 20 21 20 22 24 23 23 24 23 21 22 23
17 19 22 25 28 32 31 32 32 32 32 32 32 31 30 27 28 41 38 35 32 28 30 34 32 30 28 24 19 18 20 20 21 23 24 25 25 25 25 23 22 21 23 23
21 23 24 22 23 29 33 33 33 34 34 34 35 34 32 33 37 39 35 31 29 26 28 34 34 31 26 21 19 18 20 21 23 23 24 26 25 24 23 20 19 20 21 22
23 29 30 24 18 24 29 30 32 34 33 33 38 42 38 37 36 36 34 32 31 29 30 32 34 31 24 20 19 21 22 22 22 21 20 21 21 22 19 18 18 19 21 22
Wind_Direction_500mb
344 353 349 319 314 343 305 224 236 204 252 293 286 325 108 127 147 165 192 211 231 219 212 202 184 160 142 198 136 178 333 6 15 18 30 25 16 12 20 30 33 34 36 38
331 320 307 290 253 253 263 268 271 284 282 261 84 87 81 163 162 168 190 211 213 203 199 188 168 158 194 218 185 233 237 36 11 4 48 50 21 10 13 28 33 35 37 36
243 248 271 264 226 238 246 235 231 257 255 111 72 91 62 22 204 192 193 198 196 207 198 164 176 192 205 215 201 201 200 186 349 3 39 58 40 21 15 26 29 32 35 35
193 9 256 238 246 244 241 245 235 243 92 135 137 118 103 90 151 172 180 192 202 189 175 180 197 198 192 228 221 219 230 221 205 4 40 51 48 35 32 30 29 30 33 33
172 205 272 297 296 293 261 243 287 116 110 103 96 118 102 140 183 204 215 210 198 191 193 194 193 189 193 220 238 163 154 191 87 58 59 58 50 41 41 40 28 23 26 30
147 204 230 209 251 115 50 290 97 104 113 101 65 45 247 211 201 192 193 188 188 200 199 194 195 199 210 220 232 139 105 80 86 71 63 62 56 48 50 44 41 15 16 20
194 235 269 218 286 195 154 224 151 165 143 113 156 203 230 191 172 186 192 196 193 196 195 188 190 203 185 171 176 140 90 72 68 60 40 38 50 50 48 44 37 21 3 11
192 211 259 231 244 160 193 172 193 184 143 138 169 221 190 184 179 180 181 186 181 159 162 171 181 186 154 127 131 113 108 96 82 99 72 17 23 22 17 15 9 15 12 10
174 207 229 90 103 356 51 15 146 145 147 168 251 226 194 189 192 179 183 177 166 172 169 173 174 184 177 183 166 170 168 126 106 88 112 356 33 46 34 25 24 16 12 13
170 225 203 263 255 231 188 112 71 170 229 254 245 229 214 202 189 182 188 183 179 189 189 179 180 192 210 188 181 187 185 155 116 186 58 6 7 24 25 31 33 30 27 21
324 330 28 190 139 148 137 154 295 275 245 243 237 223 221 203 193 186 190 183 189 195 191 184 188 186 190 190 182 192 195 184 193 195 259 348 358 13 14 15 18 16 20 19
227 277 245 263 273 249 250 247 254 238 232 236 238 231 219 205 197 186 190 184 187 190 194 193 194 199 195 179 195 210 206 205 216 208 213 265 329 352 358 2 3 360 5 10
259 280 277 282 287 287 283 274 247 242 238 233 228 226 216 197 186 185 192 189 192 192 189 187 193 195 190 191 202 209 214 202 205 218 231 215 202 289 324 350 355 345 341 352
272 285 294 289 290 298 286 224 232 235 230 218 210 208 207 193 179 190 195 195 188 191 192 199 208 208 205 205 207 212 217 224 234 245 241 239 235 236 272 304 319 326 316 329
264 269 271 276 282 281 278 223 226 213 206 194 197 204 200 189 186 190 192 189 187 196 200 208 216 217 216 207 204 209 211 219 240 253 237 210 216 237 260 272 279 290 301 305
261 271 269 265 264 276 265 218 208 200 193 193 200 198 196 194 189 189 191 193 193 198 205 213 220 224 221 211 205 211 218 229 231 248 248 236 244 250 262 271 272 282 294 311
258 257 266 267 268 261 230 217 212 206 194 198 200 194 188 187 189 189 191 197 204 209 216 224 223 226 214 204 204 212 223 229 231 238 259 263 252 256 265 272 276 289 300 311
261 261 259 258 264 246 207 203 210 205 200 201 201 197 195 201 198 193 195 197 205 212 218 221 219 212 205 201 206 218 238 251 250 247 264 277 264 262 272 277 283 282 286 295
244 250 262 252 249 246 215 198 207 205 203 203 203 202 206 205 201 202 203 206 211 213 214 217 215 209 204 201 209 222 231 239 249 258 264 266 256 267 284 288 290 284 281 288
292 280 257 237 218 204 195 198 199 196 198 205 201 200 199 200 203 208 209 213 220 221 222 218 215 211 209 208 217 228 236 239 248 261 261 265 263 267 274 281 292 293 288 287
279 183 182 177 173 180 190 190 190 202 195 197 208 204 201 197 201 207 206 208 211 212 211 213 215 217 207 208 218 234 247 249 253 263 270 274 274 272 271 273 278 285 289 290
149 153 154 159 166 167 170 180 189 183 189 196 197 198 196 198 202 205 211 215 211 212 211 212 211 214 212 215 223 235 250 260 263 269 274 272 272 272 276 281 286 289 291 296
166 164 163 161 166 169 167 167 176 191 192 192 192 195 201 205 206 201 194 202 209 212 212 212 215 217 218 218 228 248 262 269 271 269 271 275 279 281 282 288 289 295 302 311
183 185 180 173 171 171 171 174 185 184 190 191 194 196 200 200 201 201 209 212 208 215 213 209 211 219 226 231 244 259 266 267 271 278 280 279 287 289 293 299 304 310 312 308
195 185 174 169 169 172 178 178 174 175 179 183 184 193 198 201 211 195 202 208 215 220 217 207 211 222 228 236 252 263 271 281 284 284 285 288 290 294 297 305 308 305 310 318
187 178 167 166 173 176 177 179 181 182 185 185 186 188 186 186 191 202 208 215 215 218 217 210 216 223 229 243 259 273 277 276 278 282 280 279 286 289 300 306 303 310 316 319
161 154 150 166 184 187 184 186 186 190 191 192 185 189 194 198 203 208 212 213 215 219 216 215 219 225 233 249 267 274 281 283 284 282 280 283 288 296 305 304 305 310 315 316
Wind_Speed_850mb
6 11 12 14 12 6 4 8 8 10 14 15 15 11 18 20 20 27 32 30 30 28 26 19 15 13 12 7 6 2 5 9 14 17 23 28 32 35 37 41 46 48 50 49
6 9 14 23 13 13 18 18 18 27 20 23 19 26 18 14 24 25 25 24 17 19 23 19 16 16 17 11 10 7 2 3 5 8 8 13 19 22 29 37 43 48 52 53
7 10 17 17 18 22 20 18 13 16 19 9 9 18 19 13 24 27 22 27 26 22 18 25 23 23 16 14 17 11 5 2 2 6 7 8 11 19 26 31 36 46 51 52
6 8 10 13 15 18 23 24 25 20 12 18 17 24 13 10 21 33 36 33 28 26 25 31 29 22 18 16 9 13 10 5 4 2 7 9 10 17 24 29 37 42 47 50
7 11 14 25 21 7 12 14 6 16 16 20 19 27 14 9 12 19 21 24 26 33 32 30 25 24 26 20 8 5 5 1 5 8 9 13 19 20 22 25 32 40 43 47
3 7 13 14 23 11 9 5 14 25 12 15 13 4 7 15 17 22 24 32 34 36 34 29 24 23 21 20 9 5 8 11 12 17 20 17 19 24 26 26 27 31 37 42
10 10 11 11 29 11 11 12 14 14 17 15 7 13 10 17 24 25 25 25 20 26 35 22 23 14 9 12 12 7 7 10 13 16 20 18 14 15 16 18 18 20 29 35
7 11 21 20 13 14 9 22 21 9 14 15 7 9 19 34 36 30 31 26 17 26 26 25 20 10 12 9 12 11 8 6 11 12 7 10 12 10 11 8 11 16 22 30
14 11 12 7 14 7 7 5 10 15 11 5 6 17 32 37 31 35 36 32 26 31 39 28 18 20 26 12 14 13 8 5 5 7 2 7 15 15 15 15 15 19 23 29
7 12 19 33 12 12 7 6 4 7 10 10 13 24 27 29 30 41 40 35 36 39 34 31 30 27 24 23 18 15 11 7 7 3 4 8 12 14 19 23 23 27 31 36
3 4 7 14 10 20 10 2 3 7 16 15 15 30 33 36 38 44 39 35 40 38 33 36 34 28 28 25 23 21 16 14 10 7 5 4 10 14 19 24 25 27 32 40
8 8 10 14 12 10 10 15 22 21 22 20 18 32 37 33 34 44 42 44 41 36 32 32 34 33 26 29 27 25 19 15 14 10 8 6 4 9 13 18 23 26 30 36
24 41 42 43 44 47 45 39 28 25 29 24 21 31 36 29 34 43 45 44 40 36 38 38 38 35 38 36 32 27 21 16 16 13 10 7 5 5 9 13 14 19 23 30
45 43 41 39 30 26 27 25 23 32 30 27 24 32 38 32 41 46 45 41 39 42 44 45 40 38 35 33 30 28 22 18 13 8 7 7 7 6 6 8 11 13 23 26
54 53 54 51 52 47 41 21 32 38 31 26 30 39 42 41 46 48 43 40 42 46 47 45 41 35 30 28 28 28 20 15 12 9 6 6 7 7 10 10 10 15 23 32
45 46 45 48 47 49 54 42 47 35 32 35 36 42 45 43 47 47 46 46 52 54 49 44 38 32 31 28 24 21 17 12 11 11 8 7 9 11 13 14 16 20 25 29
49 44 46 48 49 27 26 41 43 32 39 41 41 44 47 48 44 48 47 46 48 48 43 39 37 32 29 27 25 22 18 13 9 12 12 10 13 16 16 15 16 20 24 28
61 65 62 57 48 36 37 43 39 36 42 42 44 46 46 44 50 53 51 50 47 43 40 34 30 29 28 27 26 23 20 17 13 14 17 12 11 16 17 17 18 20 21 24
29 33 44 66 65 56 48 45 43 40 39 43 45 46 40 44 48 48 49 50 47 44 40 31 29 29 29 30 31 27 23 21 17 16 15 14 13 16 19 21 21 20 20 22
24 27 28 32 43 47 46 45 47 42 40 38 42 46 44 49 49 46 46 44 40 36 31 30 30 32 29 28 31 27 20 18 20 19 18 18 20 21 23 23 21 21 23 24
3 14 26 38 41 42 42 45 41 31 33 38 38 45 46 48 46 45 45 44 41 36 30 25 31 32 26 29 31 22 18 17 20 21 22 20 19 19 21 24 25 26 26 28
11 14 19 22 29 36 36 31 21 28 38 35 35 42 47 47 44 40 33 36 37 35 29 27 33 31 24 28 27 20 18 18 19 20 22 23 22 22 23 25 27 27 28 29
13 14 18 24 28 30 28 26 27 28 34 37 40 43 44 41 39 42 44 36 32 26 30 34 35 30 27 25 18 16 16 18 20 22 24 23 23 22 24 26 26 26 25 24
15 19 21 23 24 28 32 31 28 30 34 35 33 32 35 37 35 36 36 29 27 32 29 34 35 29 26 23 19 16 17 19 20 21 20 22 24 23 23 24 23 21 22 23
17 19 22 25 28 32 31 32 32 32 32 32 32 31 30 27 28 41 38 35 32 28 30 34 32 30 28 24 19 18 20 20 21 23 24 25 25 25 25 23 22 21 23 23
21 23 24 22 23 29 33 33 33 34 34 34 35 34 32 33 37 39 35 31 29 26 28 34 34 31 26 21 19 18 20 21 23 23 24 26 25 24 23 20 19 20 21 22
23 29 30 24 18 24 29 30 32 34 33 33 38 42 38 37 36 36 34 32 31 29 30 32 34 31 24 20 19 21 22 22 22 21 20 21 21 22 19 18 18 19 21 22
Wind_Direction_850mb
344 353 349 319 314 343 305 224 236 204 252 293 286 325 108 127 147 165 192 211 231 219 212 202 184 160 142 198 136 178 333 6 15 18 30 25 16 12 20 30 33 34 36 38
331 320 307 290 253 253 263 268 271 284 282 261 84 87 81 163 162 168 190 211 213 203 199 188 168 158 194 218 185 233 237 36 11 4 48 50 21 10 13 28 33 35 37 36
243 248 271 264 226 238 246 235 231 257 255 111 72 91 62 22 204 192 193 198 196 207 198 164 176 192 205 215 201 201 200 186 349 3 39 58 40 21 15 26 29 32 35 35
193 9 256 238 246 244 241 245 235 243 92 135 137 118 103 90 151 172 180 192 202 189 175 180 197 198 192 228 221 219 230 221 205 4 40 51 48 35 32 30 29 30 33 33
172 205 272 297 296 293 261 243 287 116 110 103 96 118 102 140 183 204 215 210 198 191 193 194 193 189 193 220 238 163 154 191 87 58 59 58 50 41 41 40 28 23 26 30
147 204 230 209 251 115 50 290 97 104 113 101 65 45 247 211 201 192 193 188 188 200 199 194 195 199 210 220 232 139 105 80 86 71 63 62 56 48 50 44 41 15 16 20
194 235 269 218 286 195 154 224 151 165 143 113 156 203 230 191 172 186 192 196 193 196 195 188 190 203 185 171 176 140 90 72 68 60 40 38 50 50 48 44 37 21 3 11
192 211 259 231 244 160 193 172 193 184 143 138 169 221 190 184 179 180 181 186 181 159 162 171 181 186 154 127 131 113 108 96 82 99 72 17 23 22 17 15 9 15 12 10
174 207 229 90 103 356 51 15 146 145 147 168 251 226 194 189 192 179 183 177 166 172 169 173 174 184 177 183 166 170 168 126 106 88 112 356 33 46 34 25 24 16 12 13
170 225 203 263 255 231 188 112 71 170 229 254 245 229 214 202 189 182 188 183 179 189 189 179 180 192 210 188 181 187 185 155 116 186 58 6 7 24 25 31 33 30 27 21
324 330 28 190 139 148 137 154 295 275 245 243 237 223 221 203 193 186 190 183 189 195 191 184 188 186 190 190 182 192 195 184 193 195 259 348 358 13 14 15 18 16 20 19
227 277 245 263 273 249 250 247 254 238 232 236 238 231 219 205 197 186 190 184 187 190 194 193 194 199 195 179 195 210 206 205 216 208 213 265 329 352 358 2 3 360 5 10
259 280 277 282 287 287 283 274 247 242 238 233 228 226 216 197 186 185 192 189 192 192 189 187 193 195 190 191 202 209 214 202 205 218 231 215 202 289 324 350 355 345 341 352
272 285 294 289 290 298 286 224 232 235 230 218 210 208 207 193 179 190 195 195 188 191 192 199 208 208 205 205 207 212 217 224 234 245 241 239 235 236 272 304 319 326 316 329
264 269 271 276 282 281 278 223 226 213 206 194 197 204 200 189 186 190 192 189 187 196 200 208 216 217 216 207 204 209 211 219 240 253 237 210 216 237 260 272 279 290 301 305
261 271 269 265 264 276 265 218 208 200 193 193 200 198 196 194 189 189 191 193 193 198 205 213 220 224 221 211 205 211 218 229 231 248 248 236 244 250 262 271 272 282 294 311
258 257 266 267 268 261 230 217 212 206 194 198 200 194 188 187 189 189 191 197 204 209 216 224 223 226 214 204 204 212 223 229 231 238 259 263 252 256 265 272 276 289 300 311
261 261 259 258 264 246 207 203 210 205 200 201 201 197 195 201 198 193 195 197 205 212 218 221 219 212 205 201 206 218 238 251 250 247 264 277 264 262 272 277 283 282 286 295
244 250 262 252 249 246 215 198 207 205 203 203 203 202 206 205 201 202 203 206 211 213 214 217 215 209 204 201 209 222 231 239 249 258 264 266 256 267 284 288 290 284 281 288
292 280 257 237 218 204 195 198 199 196 198 205 201 200 199 200 203 208 209 213 220 221 222 218 215 211 209 208 217 228 236 239 248 261 261 265 263 267 274 281 292 293 288 287
279 183 182 177 173 180 190 190 190 202 195 197 208 204 201 197 201 207 206 208 211 212 211 213 215 217 207 208 218 234 247 249 253 263 270 274 274 272 271 273 278 285 289 290
149 153 154 159 166 167 170 180 189 183 189 196 197 198 196 198 202 205 211 215 211 212 211 212 211 214 212 215 223 235 250 260 263 269 274 272 272 272 276 281 286 289 291 296
166 164 163 161 166 169 167 167 176 191 192 192 192 195 201 205 206 201 194 202 209 212 212 212 215 217 218 218 228 248 262 269 271 269 271 275 279 281 282 288 289 295 302 311
183 185 180 173 171 171 171 174 185 184 190 191 194 196 200 200 201 201 209 212 208 215 213 209 211 219 226 231 244 259 266 267 271 278 280 279 287 289 293 299 304 310 312 308
195 185 174 169 169 172 178 178 174 175 179 183 184 193 198 201 211 195 202 208 215 220 217 207 211 222 228 236 252 263 271 281 284 284 285 288 290 294 297 305 308 305 310 318
187 178 167 166 173 176 177 179 181 182 185 185 186 188 186 186 191 202 208 215 215 218 217 210 216 223 229 243 259 273 277 276 278 282 280 279 286 289 300 306 303 310 316 319
161 154 150 166 184 187 184 186 186 190 191 192 185 189 194 198 203 208 212 213 215 219 216 215 219 225 233 249 267 274 281 283 284 282 280 283 288 296 305 304 305 310 315 316